Regional Weather Roundup
Issued by NWS

Home | Current Version | Previous Version | Graphics & Text | Print | Product List | Glossary On
Versions: 1 2 3 4 5 6 7 8 9 10 11 12 13 14 15 16 17 18 19 20 21 22 23 24 25 26 27 28 29 30 31 32 33 34 35 36 37 38 39 40 41 42 43 44 45 46 47 48 49 50
000
ASUS44 KMEG 042000
RWRTN
TENNESSEE HOURLY STATE WEATHER ROUNDUP
NATIONAL WEATHER SERVICE MEMPHIS TN
300 PM CDT WED MAY 04 2016

TNZ002-004-019-021-049-052-054-088>092-042100-
WEST TENNESSEE

CITY           SKY/WX    TMP DP  RH WIND       PRES   REMARKS
MEMPHIS INTL   PTSUNNY   78  52  40 NW22G32   29.77F
NWS MEMPHIS      N/A     76 N/A N/A MISG        N/A
JACKSON        MOSUNNY   74  48  39 NW16G26   29.75S
DYERSBURG      PTSUNNY   72  46  40 N16G23    29.76S
UNION CITY     MOSUNNY   70  46  43 N15       29.75F
LEXINGTON      MOSUNNY   66  55  68 NW9       29.74R
$$

TNZ008-025-027-028-033-062-065-066-042100-
NORTH MIDDLE TENNESSEE

CITY           SKY/WX    TMP DP  RH WIND       PRES   REMARKS
NASHVILLE      CLOUDY    62  57  83 W5        29.73S
CLARKSVILLE    PTSUNNY   66  50  56 NW14G23   29.72F
SMYRNA         RAIN      57  55  94 W12       29.76R FOG
COOKEVILLE     CLOUDY    57  54  88 N13       29.74R
CROSSVILLE     CLOUDY    63  43  48 VRB5      29.71F
$$

TNZ061-075-076-078-094-096-097-042100-
SOUTH MIDDLE TENNESSEE

CITY           SKY/WX    TMP DP  RH WIND       PRES   REMARKS
TULLAHOMA      PTSUNNY   66  45  45 SW8       29.71F
WINCHESTER     PTSUNNY   66  43  42 W8        29.71F
MCMINNVILLE    CLOUDY    66  46  48 SW12      29.69F
COLUMBIA       PTSUNNY   68  54  60 NW20G30   29.72R
SHELBYVILLE    CLOUDY    70  48  46 W15       29.69F
$$

TNZ017-018-042-046-047-042100-
NORTHEAST TENNESSEE

CITY           SKY/WX    TMP DP  RH WIND       PRES   REMARKS
TRI CITIES     PTSUNNY   62  39  42 W12       29.69F
$$

TNZ012-013-036-069-073-074-042100-
CENTRAL EAST TENNESSEE

CITY           SKY/WX    TMP DP  RH WIND       PRES   REMARKS
KNOXVILLE      PTSUNNY   67  41  38 SW13      29.69F
OAK RIDGE      CLOUDY    66  39  37 S6        29.70F
GATLINBURG     PTCLDY    66  39  37 VRB5      29.69F
$$

TNZ083-085-099-042100-
SOUTHEAST TENNESSEE

CITY           SKY/WX    TMP DP  RH WIND       PRES   REMARKS
CHATTANOOGA    MOSUNNY   72  41  32 SW12G18   29.72F
$$

SKY/WX REPORTED AS FAIR MEANS FEW OR NO CLOUDS BELOW
12 THOUSAND FEET.




USA.gov is the U.S. government's official web portal to all federal, state and local government web resources and services.